Location: Samoth
(37.3328°N, 88.7876°W)
Time: 12:44:40
(UTC+00:00)

Nauka - Visible Passes

Search period start: 20 September 2021 00:00
Search period end: 30 September 2021 00:00
Orbit: 419 x 423 km, 51.6° (Epoch: 19 September)

Date Brightness Start Highest point End Pass type
(mag) Time Alt. Az. Time Alt. Az. Time Alt. Az.
20 Sep ? 01:53:54 10° NW 01:55:27 13° NNW 01:56:47 11° N visible
21 Sep ? 01:06:05 10° WNW 01:08:20 17° NNW 01:10:36 10° NNE visible
22 Sep ? 00:18:31 10° W 00:21:16 23° NNW 00:24:02 10° NNE visible
24 Sep ? 00:23:16 10° NW 00:24:43 12° NNW 00:26:12 10° N visible
29 Sep ? 01:22:03 10° N 01:22:47 11° NNE 01:22:47 11° NNE visible
